Location: Newark
(55.7083°N, 13.1992°E)
Time: 21:14:35
(UTC+00:00)

A-11 Canister half - Visible Passes

Search period start: 17 February 2020 00:00
Search period end: 27 February 2020 00:00
Orbit: 1525 x 1684 km, 47.3° (Epoch: 17 February)

Date Brightness Start Highest point End Pass type
(mag) Time Alt. Az. Time Alt. Az. Time Alt. Az.
17 Feb 11.6 18:27:49 10° WSW 18:28:36 10° SW 18:29:23 10° SW visible
18 Feb 11.5 18:04:59 10° WSW 18:07:06 11° SW 18:09:13 10° SW visible
19 Feb 11.5 17:42:44 10° WSW 17:45:36 12° SW 17:48:28 10° SW visible
20 Feb 11.5 17:20:40 10° WSW 17:24:05 12° SW 17:27:32 10° SSW visible
21 Feb 11.6 16:58:42 10° WSW 17:02:35 13° SW 17:06:29 10° SSW visible
